User: anonymous   Login
Location: Fort Wayne
(41.1310°N, 85.1290°W)
Time: 10:05:43
(UTC-05:00)
Language:

Meteor 2-9 Rocket - Orbit

View from above orbital plane
View from above orbital plane
View from above satellite
View from above satellite

Ground track
Ground track

The orbit data is extracted from the following two-line orbital elements,

1 13719U 82116B   16037.40670880  .00000002  00000-0 -52017-5 0  9992
2 13719  81.2560 127.0221 0071129 330.5873  82.2728 14.14572027710133
Epoch (UTC): 06 February 2016 09:45:39
Eccentricity: 0.0071129
inclination: 81.2560°
perigee height: 792 km
apogee height: 895 km
right ascension of ascending node: 127.0221°
argument of perigee: 330.5873°
revolutions per day: 14.14572027
mean anomaly at epoch: 82.2728°
orbit number at epoch: 71013

The dashed part of the orbit path shows where the satellite is in the earth's shadow,  

DLR